Home > Weather > Braga > Past weeks

Flag for Portugal Weather for the Past 2 Weeks in Braga, Portugal

Now
50 °F

Clear.


Feels Like: 47 °F
Forecast: 44 / 73 °F
Wind: 7 mph from Northeast

Location: Porto / Pedras Rubras

Current Time: May 1, 2016 at 6:07:15 AM

Latest Report: May 1, 2016 at 5:30 AM


Visibility: 10 mi

Pressure: 30.30 "Hg

Humidity: 62%

Dew Point: 37 °F

Location of BragaLocation

Historic Weather in Braga — Graph

°F

Braga Temperature Yesterday

Maximum temperature yesterday: 64 °F (at 12:30 PM)
Minimum temperature yesterday: 46 °F (at 7:00 AM)
Average temperature yesterday: 56 °F

High & Low Weather Summary for the Past Weeks

 TemperatureHumidityPressure
High70 °F (Apr 19, 3:00 PM)100% (Apr 16, 4:30 AM)30.27 "Hg (Apr 16, 4:30 AM)
Low45 °F (Apr 18, 2:30 AM)43% (Apr 30, 1:00 PM)29.65 "Hg (Apr 16, 6:30 AM)
Average58 °F78%29.99 "Hg
* Reported Apr 16 4:00 AM — May 1 4:30 AM, Braga, Weather by CustomWeather, © 2016

Note: Actual official high and low records may vary slightly from our data, if they occured in-between our weather recording intervals... More about our weather records

Advertising

Braga Weather History for the Previous 24 Hours

Scroll right to see more
 ConditionsComfort  
Time TempWeatherWind HumidityBarometerVisibility
4:30 AM
Sun, May 1
52 °FPassing clouds.7 mph58%30.27 "HgN/A
3:30 AM50 °FClear.6 mph62%30.27 "Hg10 mi
3:00 AM48 °FClear.7 mph66%30.27 "Hg10 mi
2:30 AM48 °FClear.7 mph66%30.27 "Hg10 mi
2:00 AM48 °FClear.8 mph66%30.27 "Hg10 mi
1:30 AM50 °FClear.8 mph58%30.27 "Hg10 mi
1:00 AM50 °FClear.9 mph62%30.27 "Hg10 mi
12:30 AM52 °FClear.7 mph54%30.27 "Hg10 mi
12:00 AM52 °FClear.8 mph54%30.27 "Hg10 mi
11:30 PM
Sat, Apr 30
52 °FClear.7 mph50%30.27 "Hg10 mi
11:00 PM55 °FClear.8 mph44%30.27 "Hg10 mi
10:30 PM54 °FClear.9 mph51%30.27 "Hg10 mi
10:00 PM55 °FClear.8 mph59%30.24 "Hg10 mi
9:30 PM55 °FSunny.8 mph67%30.24 "Hg10 mi
9:00 PM55 °FSunny.9 mph72%30.24 "Hg10 mi
8:30 PM57 °FPassing clouds.10 mph67%30.21 "HgN/A
8:00 PM59 °FSunny.12 mph63%30.21 "Hg10 mi
7:30 PM61 °FSunny.13 mph59%30.21 "Hg10 mi
7:00 PM61 °FSunny.15 mph59%30.21 "Hg10 mi
6:30 PM63 °FSunny.18 mph56%30.21 "Hg10 mi
6:00 PM63 °FPassing clouds.15 mph56%30.21 "HgN/A
5:30 PM63 °FSunny.18 mph52%30.21 "Hg10 mi
5:00 PM63 °FSunny.16 mph56%30.21 "Hg10 mi
4:30 PM64 °FSunny.16 mph49%30.21 "Hg10 mi
4:00 PM64 °FSunny.15 mph49%30.21 "Hg10 mi
3:30 PM64 °FPassing clouds.15 mph49%30.21 "HgN/A
3:00 PM64 °FSunny.15 mph52%30.21 "Hg10 mi
2:30 PM64 °FSunny.17 mph56%30.21 "Hg10 mi
2:00 PM63 °FSunny.16 mph56%30.21 "Hg10 mi
1:30 PM63 °FSunny.13 mph56%30.21 "Hg10 mi
1:00 PM64 °FPassing clouds.12 mph43%30.21 "HgN/A
12:30 PM64 °FPassing clouds.12 mph49%30.21 "HgN/A
12:00 PM63 °FPassing clouds.12 mph49%30.21 "HgN/A
11:30 AM61 °FPassing clouds.10 mph45%30.21 "HgN/A
11:00 AM59 °FPassing clouds.10 mph51%30.21 "HgN/A
10:30 AM59 °FPassing clouds.10 mph55%30.21 "HgN/A
10:00 AM57 °FSunny.14 mph55%30.21 "Hg10 mi
9:30 AM55 °FPassing clouds.10 mph59%30.21 "HgN/A
9:00 AM54 °FPassing clouds.7 mph63%30.21 "HgN/A
8:30 AM52 °FPassing clouds.8 mph67%30.21 "HgN/A
8:00 AM50 °FPassing clouds.12 mph71%30.18 "HgN/A
7:30 AM48 °FPassing clouds.8 mph71%30.18 "HgN/A
7:00 AM46 °FPassing clouds.5 mph76%30.18 "HgN/A
6:30 AM48 °FPassing clouds.3 mph66%30.18 "HgN/A
6:00 AM48 °FClear.7 mph66%30.15 "Hg10 mi
Weather by CustomWeather, © 2016

See weather overviewHow to use our weather pages